Home   Weather   Ios   Past weeks
Flag for Greece

Past Weather in Ios, Greece — Yesterday and Last 2 Weeks

Now
77 °F

Clear.


Feels Like: 79 °F
Forecast: 79 / 75 °F
Wind: 15 mph from North

Location: Paros Community Airport

Current Time: Jul 18, 2019 at 11:28:56 pm

Latest Report: Jul 18, 2019 at 8:50 pm


Visibility: 10 mi

Pressure: 29.86 "Hg

Humidity: 57%

Dew Point: 61 °F

Location of IosLocation

Past Weather in Ios — Graph

°F

Ios Temperature Yesterday

Maximum temperature yesterday: 79 °F (at 12:50 pm)
Minimum temperature yesterday: 73 °F (at 5:20 am)
Average temperature yesterday: 77 °F

High & Low Weather Summary for the Past Weeks

 TemperatureHumidityPressure
High90 °F (Jul 5, 1:50 pm)100% (Jul 14, 6:20 am)29.89 "Hg (Jul 14, 6:20 am)
Low72 °F (Jul 4, 5:50 am)29% (Jul 8, 9:50 am)29.59 "Hg (Jul 11, 7:50 am)
Average81 °F55%29.78 "Hg
* Reported Jul 4 5:50 am — Jul 18 8:50 pm, Ios. Weather by CustomWeather, © 2019

Note: Actual official high and low records may vary slightly from our data, if they occured in-between our weather recording intervals... More about our weather records

Advertising

Ios Weather History for the Previous 24 Hours

Scroll right to see more
 ConditionsComfort  
Time TempWeatherWind HumidityBarometerVisibility
8:50 pm
Thu, Jul 18
77 °FClear.15 mph57%29.86 "Hg10 mi
7:50 pm79 °FSunny.16 mph54%29.83 "Hg10 mi
6:50 pm79 °FSunny.18 mph54%29.83 "Hg10 mi
5:50 pm81 °FSunny.21 mph48%29.80 "Hg10 mi
4:50 pm81 °FSunny.21 mph51%29.83 "Hg10 mi
3:50 pm81 °FSunny.22 mph48%29.83 "Hg10 mi
2:50 pm81 °FSunny.18 mph54%29.83 "Hg10 mi
1:50 pm81 °FSunny.18 mph54%29.80 "Hg10 mi
12:50 pm81 °FSunny.16 mph54%29.83 "Hg10 mi
11:50 am79 °FSunny.15 mph61%29.83 "Hg10 mi
10:50 am79 °FSunny.20 mph54%29.80 "Hg10 mi
9:50 am77 °FSunny.17 mph61%29.80 "Hg10 mi
8:50 am77 °FSunny.18 mph57%29.77 "Hg10 mi
7:50 am75 °FSunny.15 mph61%29.77 "Hg10 mi
6:50 am73 °FPassing clouds.17 mph69%29.77 "HgN/A
5:50 am75 °FPassing clouds.16 mph69%29.74 "HgN/A
5:20 am75 °FPassing clouds.15 mph69%29.74 "HgN/A
Weather by CustomWeather, © 2019

See weather overview